TOKI (42820 NORAD) Tracking and Keplerian Element Data

This shows tracking and keplerian element data for the satellite.

Feedback or suggestion? Click here.




ElementValue
Catalog42820
NameTOKI
Epoch Orbit7703
Epoch Day315.45897942
Epoch Year2018
RAAN327.6585
Inclination51.634
Eccentricity0.0004416
Argument of Perigee30.1485
Mean Anonmoly329.9768
Mean Motion15.75988787
Decay Rate0.00047569
L11 42820U 98067MU 18315.45897942 .00047569 00000-0 30205-3 0 9996
L22 42820 51.6340 327.6585 0004416 30.1485 329.9768 15.75988787 77035

Live tracking and technical data element details for TOKI (NORAD 42820). TOKI can be tracked NOW for your location showing map with azimuth and elevation plus other details from your city location.

Track the satellite on the map from your city or location and see movement details for azimuth, elevation, latitude, longitude, range, height, and movement on the map or in text.







IsCatalogInMostPopularTable: catalog: 42820, numindb: 151
Update: records affected: 1



GetName: 42820 TOKI

Hit Count: updated at: Mon, 12 Nov 2018 17:32:07 GMT